Home > Weather > San Buenaventura > Past weeks

Flag for U.S.A. Weather for the Past 2 Weeks in San Buenaventura, California, U.S.A.

Now
63 °F

Clear.


Feels Like: 63 °F
Forecast: 56 / 77 °F
Wind: 8 mph from Northwest

Location: Oxnard Airport

Current Time: Feb 6, 2016 at 6:38:13 PM

Latest Report: Feb 6, 2016 at 5:51 PM


Visibility: 10 mi

Pressure: 30.16 "Hg

Humidity: 35%

Dew point: 35 °F

Location of San BuenaventuraLocation

Historic Weather in San Buenaventura — Graph

°F

San Buenaventura Temperature Yesterday

Maximum temperature yesterday: 75 °F (at 1:51 PM)
Minimum temperature yesterday: 50 °F (at 11:51 PM)
Average temperature yesterday: 63 °F

High & Low Weather Summary for the Past Weeks

 TemperatureHumidityPressure
High77 °F (Feb 6, 11:51 AM)93% (Jan 31, 7:51 AM)30.38 "Hg (Jan 31, 7:51 AM)
Low41 °F (Feb 1, 11:51 PM)13% (Feb 5, 1:51 PM)29.57 "Hg (Jan 31, 1:51 PM)
Average57 °F56%30.12 "Hg
* Reported Jan 22 4:51 PM — Feb 6 4:51 PM, San Buenaventura, Weather by CustomWeather, © 2016

Note: Actual official high and low records may vary slightly from our data, if they occured in-between our weather recording intervals... More about our weather records

Advertising

San Buenaventura Weather History for the Previous 24 Hours

 ConditionsComfort  
Time TempWeatherWind HumidityBarometerVisibility
4:51 PM
Sat, Feb 6
65 °FSunny.10 mph39%30.15 "Hg10 mi
3:51 PM69 °FSunny.12 mph31%30.15 "Hg10 mi
2:51 PM72 °FSunny.13 mph25%30.16 "Hg10 mi
1:51 PM74 °FSunny.10 mph19%30.18 "Hg10 mi
12:51 PM74 °FSunny.10 mph23%30.21 "Hg10 mi
11:51 AM77 °FSunny.14 mph15%30.24 "Hg10 mi
10:51 AM75 °FSunny.16 mph17%30.27 "Hg10 mi
9:51 AM72 °FSunny.9 mph19%30.28 "Hg10 mi
8:51 AM65 °FSunny.13 mph26%30.27 "Hg10 mi
7:51 AM60 °FSunny.5 mph28%30.28 "Hg10 mi
6:51 AM54 °FSunny.No wind34%30.27 "Hg10 mi
5:51 AM51 °FClear.No wind41%30.26 "Hg10 mi
4:51 AM54 °FClear.6 mph37%30.25 "Hg10 mi
3:51 AM56 °FClear.5 mph32%30.26 "Hg10 mi
2:51 AM56 °FClear.7 mph33%30.30 "Hg10 mi
1:51 AM54 °FClear.7 mph40%30.30 "Hg10 mi
12:51 AM48 °FClear.3 mph66%30.30 "Hg10 mi
11:51 PM
Fri, Feb 5
50 °FClear.3 mph71%30.31 "Hg10 mi
10:51 PM52 °FClear.No wind75%30.30 "Hg10 mi
9:51 PM52 °FClear.5 mph80%30.30 "Hg9 mi
8:51 PM55 °FClear.No wind74%30.29 "Hg10 mi
7:51 PM58 °FClear.6 mph62%30.29 "Hg10 mi
6:51 PM59 °FClear.8 mph42%30.29 "Hg10 mi
Weather by CustomWeather, © 2016

See weather overviewHow to use our weather pages